Location: SBMNH
(34.4407°N, 119.7157°W)
Time: 21:59:06
(UTC-07:00)

X-37B - Pass Details

Date: 16 August 2022
Orbit: 329 x 342 km, 45.0° (Epoch: 29 September)

Event Time Altitude Azimuth Distance (km) Brightness Sun altitude
Exits shadow 05:22:36 11° 297° (WNW) 1,222 2.7 -12.0°
Maximum altitude 05:25:18 64° 215° (SW) 377 0.2 -11.5°
Drops below altitude 10° 05:28:09 10° 132° (SE) 1,277 3.5 -10.9°
Sets 05:30:09 0° 129° (SE) 2,113 4.7 -10.5°
